Location: Wiler
(46.4041°N, 7.7840°E)
Time: 04:01:51
(UTC+00:00)

Cosmos 2322 Rocket - Pass Details

Date: 09 April 2020
Orbit: 834 x 849 km, 71.0° (Epoch: 06 June)

Event Time Altitude Azimuth Distance (km) Brightness Sun altitude
Rises 21:34:48 0° 339° (NNW) 3,405 6.5 -29.8°
Reaches altitude 10° 21:37:39 10° 351° (N) 2,464 5.4 -30.1°
Enters shadow 21:42:17 27° 47° (NE) 1,557 3.6 -30.5°
